Temperature
20 19 20 21 25 28 28 28 28 27 27 25 25 25 26 26 26 24 21 21 20 20 19 19 19 19 19 19 19 20 20 20 20 20 19 19 19 19 19 19 18 18 18 18 18 18 18 18 18
19 20 21 24 28 29 28 28 28 27 26 24 24 24 25 24 22 21 20 20 20 20 19 19 19 19 19 19 19 19 20 20 19 19 19 19 19 19 19 18 18 18 18 18 18 18 18 18 18
19 20 24 28 29 29 28 28 28 26 25 24 24 24 24 23 21 20 20 20 20 20 19 18 19 19 19 19 19 19 19 19 19 19 19 19 19 19 18 18 18 18 18 18 18 18 18 18 18
21 23 25 28 29 29 28 28 27 26 25 24 25 25 23 20 20 20 20 20 20 19 19 18 19 19 19 19 19 19 19 19 19 19 19 19 19 18 18 18 18 18 18 18 18 18 18 18 18
22 26 28 29 29 29 28 27 26 27 26 25 25 25 22 20 20 20 20 20 20 20 19 18 19 19 19 19 19 19 19 19 19 19 19 18 18 18 18 18 18 18 18 18 18 18 18 18 18
25 27 29 29 29 29 28 27 26 26 26 25 25 25 22 19 20 20 20 20 20 20 19 18 19 18 18 18 19 19 19 19 19 19 18 18 18 18 18 18 18 18 18 18 17 17 18 18 18
26 28 29 29 29 29 28 26 26 26 26 25 24 24 21 19 19 19 20 20 20 20 20 18 18 18 18 18 18 18 18 18 18 18 18 18 18 18 18 18 18 18 18 17 17 17 17 17 17
25 28 29 29 28 29 28 26 25 26 25 23 23 24 22 19 19 19 19 19 19 19 19 18 18 18 18 18 18 18 18 18 18 18 18 18 18 18 18 17 18 18 18 17 17 17 17 17 17
25 28 29 29 28 29 28 27 25 24 24 23 22 23 22 19 18 19 19 19 19 19 19 19 19 18 18 18 18 18 18 18 18 18 18 18 17 17 17 17 17 17 18 17 17 17 17 17 17
26 28 29 29 29 28 27 26 25 24 24 24 22 21 20 19 19 19 19 19 19 18 18 18 18 18 18 18 18 17 17 17 17 17 17 17 17 17 17 17 17 17 17 17 17 17 17 17 17
27 28 29 28 27 27 27 26 25 25 26 25 23 21 20 19 19 19 19 19 19 19 18 18 18 18 18 18 18 18 17 17 17 17 17 17 17 17 17 17 17 17 17 16 16 17 16 16 16
28 28 27 27 27 26 26 26 25 25 25 23 22 21 20 20 20 20 19 19 19 19 18 18 18 18 18 18 18 18 17 17 17 17 17 17 17 17 16 16 16 16 16 16 16 16 16 16 16
28 28 27 27 26 26 25 25 25 24 23 21 21 21 20 20 20 19 19 19 19 18 18 18 18 18 18 18 18 17 17 17 17 17 17 16 16 16 16 16 16 16 16 16 16 16 16 16 16
28 28 27 27 26 25 26 25 25 23 22 21 21 20 20 20 20 19 19 18 18 18 18 18 18 18 18 18 18 17 17 17 17 16 16 16 16 16 16 15 15 15 15 15 15 15 15 15 15
27 28 28 28 27 26 26 26 25 23 21 21 21 20 20 19 19 19 19 18 18 18 18 18 18 18 18 17 17 17 17 17 16 16 16 16 16 15 15 15 15 15 15 15 15 15 15 15 15
28 29 29 28 27 26 26 26 25 22 21 21 21 20 19 19 19 19 19 18 18 18 18 18 18 18 18 17 17 17 17 16 16 16 16 15 15 15 15 15 15 14 14 14 14 15 15 15 15
29 29 29 29 27 27 26 26 25 22 22 22 21 20 19 19 19 19 18 18 18 18 18 18 18 18 18 17 17 17 17 16 16 16 15 15 15 14 14 14 14 14 14 14 14 14 14 15 15
29 29 29 29 28 27 27 26 26 23 22 22 21 20 19 19 19 18 18 18 18 18 18 18 18 18 17 17 17 17 16 16 16 15 15 15 14 14 14 14 14 14 14 14 13 13 13 14 14
29 29 28 28 28 27 27 26 26 24 23 22 21 20 20 19 19 18 18 18 18 18 18 18 18 18 17 17 17 17 16 16 16 15 15 15 14 14 14 14 13 13 13 13 13 13 14 14 14
29 29 29 28 27 27 27 26 26 25 23 22 22 21 20 19 19 18 18 17 17 18 18 18 18 17 17 17 17 17 16 16 16 15 15 15 14 14 14 14 14 13 13 13 13 13 14 14 14
29 29 29 28 27 27 26 27 26 25 23 22 22 21 21 20 19 18 18 17 17 17 18 18 17 17 17 17 17 16 16 16 15 15 15 15 14 14 14 13 13 13 13 13 13 12 13 14 14
29 29 28 27 27 28 27 27 26 26 25 24 23 22 21 20 19 18 18 17 17 17 17 18 18 18 18 17 17 16 16 16 16 15 15 15 14 14 14 13 13 13 13 13 13 13 13 13 14
29 28 28 27 27 27 27 27 28 26 26 25 24 22 21 20 19 19 18 18 18 17 17 17 18 18 18 17 17 16 16 16 16 15 15 15 14 14 14 13 13 13 13 13 12 12 12 13 13
28 27 27 27 28 27 27 27 27 28 26 26 25 23 21 21 20 19 18 18 18 17 17 17 18 18 18 17 17 17 16 16 16 16 15 15 14 14 14 13 13 13 13 12 12 12 12 12 12
28 28 28 27 27 27 27 27 27 28 27 27 25 24 22 21 20 19 18 18 18 18 18 17 18 18 18 17 17 17 17 16 16 16 15 15 15 14 14 13 13 13 12 12 12 12 12 12 12
28 28 27 26 27 28 27 27 28 27 26 26 25 24 23 22 21 20 19 19 18 18 18 18 18 18 18 18 17 17 17 16 16 16 16 15 15 15 14 13 13 13 13 12 12 12 12 12 12
28 28 29 28 27 27 28 28 28 27 27 26 25 24 23 23 22 21 20 19 19 18 18 18 18 18 18 18 18 17 17 17 16 16 16 15 15 14 14 14 13 13 13 12 12 12 12 12 12
28 28 28 27 26 26 27 27 28 27 27 27 26 25 24 23 22 22 21 20 19 19 19 18 18 18 18 18 18 18 18 17 17 16 16 15 15 15 14 14 13 13 13 13 12 12 12 12 12
27 27 27 28 27 26 26 27 28 27 27 27 27 26 25 24 23 22 22 21 20 20 19 19 19 19 19 18 18 18 18 18 17 17 16 16 15 15 15 14 14 13 13 13 13 12 12 12 12
28 28 27 26 26 26 26 27 28 28 28 27 27 26 25 24 24 23 22 22 21 21 20 19 19 19 19 19 19 19 18 18 18 17 17 16 16 15 15 14 14 14 13 13 13 12 12 12 12
Wind_Speed
10 7 5 4 5 5 1 1 1 2 2 2 3 2 3 4 2 5 7 15 17 18 20 19 16 16 15 15 15 15 15 14 13 13 12 11 10 9 9 8 8 8 8 8 8 8 8 8 8
6 4 5 5 6 4 0 0 1 1 3 4 4 3 3 3 5 7 10 15 19 19 20 19 18 16 16 15 15 14 14 13 13 12 11 10 9 8 8 8 8 7 7 7 7 7 7 7 7
5 6 5 5 5 5 2 1 0 2 4 4 3 2 1 3 6 7 11 18 19 18 18 19 19 17 16 15 15 14 13 13 12 11 10 9 8 7 7 7 7 6 6 6 6 6 6 6 6
5 5 5 7 5 1 2 0 1 4 4 3 4 3 3 3 4 9 16 19 19 18 18 20 18 17 16 15 14 14 13 12 11 10 9 8 7 7 6 6 6 5 5 5 5 5 5 5 5
6 5 7 6 2 1 1 1 2 4 3 3 4 3 5 4 7 15 17 18 18 17 17 20 17 16 15 14 14 13 12 11 10 9 8 7 7 6 5 5 4 4 4 4 4 4 4 3 3
4 5 6 3 0 0 0 1 3 4 3 3 4 4 5 6 11 15 17 17 17 16 16 19 16 15 14 14 13 12 11 11 9 8 7 6 6 5 4 4 3 3 3 3 3 3 2 2 2
6 5 3 3 1 1 1 1 2 3 4 4 3 4 6 8 12 14 15 15 15 15 14 16 17 15 13 13 12 11 10 10 9 8 7 6 5 5 4 3 3 2 1 2 2 2 2 2 1
5 4 3 1 3 2 3 1 0 2 2 2 2 4 7 10 12 14 14 14 13 13 12 13 14 14 14 13 12 10 10 9 8 7 6 6 6 5 4 4 3 1 1 1 1 2 2 2 2
5 5 1 3 3 3 1 2 2 1 3 4 2 1 8 15 14 14 14 13 13 12 11 11 12 12 11 11 13 11 10 9 8 8 7 5 4 4 4 3 3 0 1 1 1 2 2 3 5
5 4 4 4 5 6 3 3 3 5 6 6 6 6 12 16 15 15 15 15 15 14 12 10 10 11 10 9 10 9 8 8 5 4 4 3 2 1 1 5 3 1 1 2 2 2 5 8 6
5 5 5 5 5 6 4 3 4 6 5 6 8 12 15 16 15 14 14 14 14 14 12 11 10 10 9 7 8 6 5 6 5 4 2 2 1 0 1 0 2 1 3 3 3 5 4 4 2
5 6 6 6 5 5 4 2 3 5 1 1 6 12 16 16 15 15 14 13 13 13 12 11 10 9 8 7 6 6 5 5 4 5 2 2 1 1 3 2 2 1 1 1 2 2 1 2 2
8 6 4 4 4 2 2 3 3 2 2 4 7 11 14 15 14 12 11 11 12 12 12 11 10 9 8 6 5 6 5 5 5 4 4 2 1 2 2 2 3 3 2 1 1 1 1 2 3
5 6 6 5 3 2 4 4 4 2 4 6 9 11 12 13 13 12 12 12 13 12 12 11 10 9 9 7 5 5 6 5 5 4 5 3 3 3 2 2 2 2 2 3 2 2 1 2 2
7 8 6 5 4 2 4 5 4 4 6 8 10 10 11 11 12 12 13 12 13 12 12 11 11 10 9 8 8 7 7 6 5 6 6 4 4 4 2 3 2 3 2 1 1 2 2 2 3
7 7 4 2 4 3 6 5 4 6 8 9 10 11 11 11 12 11 12 11 11 11 11 11 10 11 10 8 8 7 6 7 6 6 6 4 4 3 2 3 3 3 2 2 1 2 3 2 3
5 5 7 2 4 4 6 5 3 6 8 9 10 11 11 11 11 10 11 11 11 11 11 11 10 10 10 9 8 8 7 6 6 5 5 5 4 2 2 3 4 2 2 3 3 3 4 2 3
9 9 8 6 1 6 8 7 3 6 8 9 10 11 12 13 13 12 11 11 11 10 10 11 10 10 10 9 7 7 7 6 6 5 5 4 4 3 2 3 3 2 3 3 3 3 3 3 3
10 10 10 6 1 5 8 8 5 6 9 10 11 12 12 12 11 11 11 11 11 11 11 11 11 10 9 8 8 8 7 6 6 5 6 5 3 3 1 3 3 2 3 4 3 3 1 2 3
9 10 9 4 1 5 7 7 5 6 10 10 11 12 13 13 12 11 12 12 13 13 12 11 11 11 11 9 7 6 6 6 5 5 6 5 4 3 3 2 1 2 2 3 3 3 3 2 3
10 9 9 8 4 6 7 5 5 6 8 9 11 12 13 13 14 14 14 14 13 13 13 11 12 12 11 10 8 7 6 5 6 6 6 6 6 4 2 2 1 1 1 3 3 3 3 3 2
10 6 6 7 8 5 4 6 3 6 8 10 11 12 13 13 13 14 14 15 14 14 13 12 12 11 11 10 10 10 8 6 6 6 5 7 7 6 5 4 2 1 1 1 1 3 2 3 2
7 4 6 7 8 8 3 6 1 5 6 9 11 12 13 13 13 14 15 15 15 14 13 12 12 11 11 11 10 9 8 6 5 5 6 6 7 7 6 5 4 3 1 1 1 1 2 2 3
3 4 6 7 7 5 3 5 3 1 3 6 9 11 13 13 13 14 14 14 14 14 13 12 12 11 12 12 11 11 9 7 6 7 6 7 6 6 7 7 5 5 3 2 2 1 1 2 2
7 8 7 5 4 3 2 5 3 2 2 4 8 11 13 14 14 15 16 16 15 15 15 14 14 13 13 13 12 12 10 9 9 8 7 7 6 6 7 7 6 5 4 4 3 3 2 2 2
6 8 8 9 8 7 1 3 3 2 3 5 7 10 13 15 15 16 17 17 16 17 16 16 16 15 15 14 13 12 11 9 8 8 6 7 5 5 6 7 7 6 6 6 5 4 4 3 4
5 7 6 9 9 8 4 2 1 4 5 7 9 11 13 14 16 16 17 17 17 17 17 17 16 15 15 15 13 12 12 10 8 8 8 7 6 6 8 8 7 7 7 6 6 5 4 4 5
5 5 5 7 7 7 5 3 2 1 5 8 10 11 13 14 16 16 16 17 17 17 16 17 17 16 16 15 14 12 12 11 10 9 9 7 7 7 8 9 8 8 8 7 7 6 5 5 6
6 5 6 6 6 8 7 3 4 2 2 6 9 11 13 14 16 16 16 16 17 17 17 17 17 16 15 15 14 13 12 12 11 10 10 9 9 9 9 9 9 9 9 8 8 8 6 7 7
8 8 7 7 6 6 8 3 6 2 1 3 6 9 11 12 14 15 16 16 16 17 17 17 16 17 16 15 14 14 13 12 12 12 11 10 10 10 10 10 10 10 9 9 9 9 8 8 8
Wind_Direction
190 203 229 244 242 234 278 83 276 165 133 119 152 179 173 141 123 107 128 149 147 150 148 152 152 149 145 141 136 133 132 130 129 127 127 125 122 118 115 109 103 99 94 91 89 88 87 88 88
193 204 236 243 258 258 161 110 212 120 106 138 154 173 159 118 80 114 142 149 152 152 152 156 151 152 148 144 140 137 135 132 131 129 127 125 121 117 114 109 103 100 97 96 95 90 88 87 84
198 229 255 250 259 297 346 103 74 121 145 172 173 180 141 115 124 138 149 153 155 152 151 146 153 154 151 147 143 141 138 135 134 132 130 128 125 120 116 112 108 104 101 97 99 95 91 89 85
211 227 237 253 262 334 324 327 169 162 164 195 196 148 105 80 139 143 148 156 153 150 155 148 157 155 152 148 145 143 140 139 137 135 133 132 130 123 115 114 111 109 106 103 100 100 97 94 94
238 251 243 242 265 46 318 317 216 203 179 193 207 146 109 88 127 138 150 155 153 156 155 149 158 155 152 149 146 145 142 139 138 137 136 134 130 124 115 111 110 107 107 110 106 108 110 99 95
235 250 254 265 148 123 106 202 208 214 186 176 186 145 100 120 134 143 150 156 156 156 154 146 153 155 153 151 149 147 143 141 139 137 132 126 119 116 111 104 106 103 111 120 124 123 126 115 97
269 267 282 300 318 142 87 147 222 214 194 174 178 144 124 138 142 146 150 155 156 158 154 152 161 160 156 152 150 146 142 140 138 136 133 130 125 121 116 109 106 104 116 131 150 159 163 162 143
282 271 246 278 306 18 87 152 285 241 171 137 200 172 147 149 147 145 148 154 155 158 157 156 165 160 165 159 149 144 142 139 137 136 135 136 144 148 149 172 134 140 171 191 202 198 198 190 179
268 256 308 8 335 350 47 231 163 199 169 169 177 144 131 144 149 150 151 153 156 159 160 164 157 160 165 161 149 152 147 144 153 152 147 184 186 164 169 81 83 178 228 223 220 203 191 200 184
250 279 19 353 323 320 313 268 201 196 194 185 165 138 136 150 157 160 163 163 163 163 165 162 160 163 166 158 149 160 162 151 165 140 155 170 112 52 57 110 100 84 199 202 187 202 209 231 214
251 291 331 324 326 314 291 247 217 225 214 201 178 158 156 160 164 167 170 170 167 166 165 166 165 167 163 153 154 153 147 140 143 123 123 91 108 98 352 330 164 198 225 240 184 219 234 236 249
256 277 293 303 321 307 291 256 226 240 241 149 172 166 167 170 171 172 174 174 169 167 168 168 162 163 162 154 148 155 150 144 130 117 130 119 77 17 26 357 350 296 279 331 287 272 266 262 252
252 278 290 294 293 298 260 241 242 221 161 160 165 172 178 176 173 172 173 174 173 172 172 167 165 159 155 151 161 150 145 137 119 113 97 75 73 39 33 25 357 338 343 295 294 303 311 271 249
287 277 273 273 271 242 244 230 218 189 155 162 169 176 179 180 177 172 174 179 179 177 172 168 167 162 158 155 153 145 138 131 127 115 100 71 62 54 35 54 15 3 349 359 332 335 296 282 284
268 268 256 231 230 217 248 231 204 169 168 171 173 173 176 183 183 180 179 183 180 178 173 171 168 165 162 159 159 148 146 146 130 114 108 92 74 68 40 42 22 22 14 346 320 314 291 275 261
246 254 275 167 215 210 249 272 137 164 180 180 177 174 178 187 190 183 183 184 180 175 172 175 173 164 161 157 155 146 148 140 133 128 120 100 80 70 34 34 40 15 355 355 346 313 302 301 288
231 311 333 347 203 225 247 281 147 180 196 193 187 183 185 191 196 189 187 183 179 174 170 172 167 163 159 154 153 146 143 142 141 137 127 117 110 95 51 48 45 0 13 4 343 16 324 313 308
335 324 322 329 230 241 259 273 217 198 204 197 190 189 191 196 195 189 187 181 176 170 166 163 161 158 155 153 153 149 153 157 155 148 130 136 129 110 54 82 53 10 36 31 26 6 360 326 313
308 307 310 325 312 259 269 274 255 208 207 201 196 195 196 198 191 184 183 180 176 172 168 163 161 158 164 165 165 164 166 169 168 164 151 158 142 126 67 66 86 20 50 25 11 345 346 344 329
295 299 309 312 251 268 285 277 255 216 213 210 205 203 201 196 187 184 183 179 180 175 172 168 166 169 177 169 165 168 165 178 173 170 160 174 166 161 147 79 90 67 69 53 23 3 337 7 0
304 310 321 317 292 239 279 257 203 201 208 209 210 208 205 199 190 185 185 182 177 176 177 176 173 175 179 167 167 162 164 182 178 184 181 184 181 179 156 153 62 68 342 54 22 359 1 355 30
303 333 309 295 287 305 288 310 172 189 200 204 206 205 204 199 194 187 186 184 180 179 179 178 176 178 177 178 183 184 192 195 192 195 181 180 189 190 184 182 172 214 23 72 334 48 345 326 351
310 322 289 281 283 288 265 296 51 179 211 204 201 200 197 191 190 187 187 185 181 178 178 177 179 180 181 190 187 198 207 201 190 192 178 194 190 197 197 194 193 200 217 95 25 34 338 334 335
243 250 249 247 261 282 338 302 334 182 223 199 190 190 190 188 186 185 185 182 181 179 178 180 182 186 187 193 195 206 206 201 195 197 190 201 195 198 196 200 202 210 210 188 211 251 234 336 342
233 272 284 282 274 328 43 290 343 47 186 192 184 182 183 185 184 184 185 183 184 183 183 185 187 192 192 196 201 204 203 200 199 205 202 212 202 198 191 199 201 210 205 210 217 226 274 255 269
251 275 292 308 316 322 247 299 14 115 164 179 177 176 179 183 185 186 186 185 185 185 187 189 191 194 194 198 202 203 202 207 205 205 212 207 216 207 183 195 203 209 209 214 214 234 226 236 253
251 258 297 287 287 291 304 310 163 163 182 181 177 175 180 183 184 184 185 185 186 189 192 194 194 197 199 200 200 202 203 210 204 193 207 210 208 201 192 201 204 207 211 220 225 239 238 235 247
272 274 261 278 298 298 298 302 8 135 184 182 182 182 180 182 184 185 186 187 188 190 192 196 198 200 201 201 202 201 201 201 198 203 205 207 204 204 200 203 207 210 211 215 227 234 222 236 243
202 224 252 274 290 295 307 343 51 33 186 189 186 184 183 184 185 185 187 189 190 191 192 196 199 201 202 204 203 203 200 198 196 199 200 200 203 200 204 207 210 213 215 216 221 240 232 236 243
247 250 243 266 275 266 290 322 88 69 99 186 185 181 183 187 187 187 188 190 193 195 196 198 201 202 204 202 200 201 199 198 198 199 200 200 202 205 205 209 213 217 218 218 223 232 234 236 242
Height
1527 1528 1529 1530 1524 1513 1512 1511 1509 1511 1514 1518 1519 1519 1518 1519 1522 1532 1533 1534 1538 1542 1544 1547 1550 1553 1555 1557 1559 1560 1561 1562 1563 1564 1565 1565 1566 1566 1567 1567 1567 1568 1568 1568 1568 1569 1569 1569 1569
1529 1530 1531 1527 1515 1513 1513 1510 1510 1511 1515 1519 1520 1521 1520 1523 1525 1528 1530 1534 1538 1543 1546 1549 1551 1554 1557 1558 1560 1561 1563 1564 1564 1565 1566 1567 1567 1568 1568 1568 1569 1569 1569 1570 1570 1570 1570 1571 1571
1530 1530 1529 1518 1511 1512 1512 1510 1510 1514 1518 1520 1520 1521 1522 1524 1526 1528 1530 1534 1539 1544 1548 1549 1552 1555 1558 1560 1561 1563 1564 1565 1566 1566 1567 1568 1568 1569 1570 1570 1570 1570 1571 1571 1571 1572 1572 1572 1573
1531 1530 1526 1515 1508 1508 1509 1509 1512 1515 1518 1520 1520 1521 1524 1526 1527 1528 1531 1535 1541 1545 1549 1550 1553 1556 1559 1561 1562 1564 1565 1566 1567 1568 1568 1569 1570 1570 1571 1571 1572 1572 1572 1572 1573 1573 1573 1574 1574
1530 1525 1515 1509 1508 1509 1510 1512 1514 1514 1517 1519 1519 1520 1525 1527 1527 1529 1533 1538 1542 1546 1551 1552 1554 1557 1560 1562 1563 1565 1566 1567 1568 1569 1569 1570 1571 1571 1572 1573 1573 1573 1573 1574 1574 1575 1575 1575 1576
1528 1520 1511 1509 1508 1509 1510 1513 1514 1515 1517 1520 1520 1521 1526 1528 1529 1532 1535 1540 1544 1548 1552 1553 1555 1558 1561 1563 1564 1566 1567 1568 1569 1569 1570 1571 1572 1572 1573 1573 1574 1574 1574 1575 1575 1575 1576 1576 1577
1525 1515 1511 1509 1509 1509 1511 1515 1515 1515 1517 1520 1521 1522 1527 1530 1532 1534 1538 1542 1546 1549 1552 1554 1557 1559 1561 1563 1565 1566 1567 1568 1569 1570 1571 1572 1572 1573 1573 1574 1574 1574 1575 1575 1576 1576 1576 1577 1577
1525 1517 1510 1509 1510 1509 1512 1515 1517 1517 1518 1523 1523 1523 1527 1530 1533 1536 1539 1543 1547 1550 1553 1555 1559 1561 1562 1564 1565 1566 1568 1569 1570 1570 1571 1572 1573 1573 1574 1574 1574 1574 1575 1575 1575 1576 1576 1577 1577
1527 1517 1510 1509 1511 1509 1512 1515 1518 1520 1521 1523 1524 1525 1527 1530 1533 1536 1540 1544 1547 1550 1553 1556 1559 1560 1563 1565 1565 1567 1568 1569 1570 1571 1572 1573 1575 1575 1575 1574 1574 1574 1574 1574 1575 1575 1576 1576 1577
1523 1513 1510 1511 1511 1510 1512 1514 1517 1519 1519 1522 1524 1526 1528 1530 1533 1537 1540 1543 1546 1549 1553 1555 1558 1560 1563 1565 1566 1568 1570 1570 1572 1572 1573 1574 1574 1575 1575 1574 1574 1574 1574 1574 1574 1575 1575 1576 1577
1520 1513 1511 1511 1512 1513 1512 1513 1516 1516 1516 1519 1522 1525 1528 1530 1533 1536 1540 1543 1546 1549 1552 1555 1558 1560 1562 1564 1566 1568 1570 1570 1572 1572 1573 1573 1574 1575 1575 1575 1574 1573 1573 1574 1573 1574 1575 1576 1576
1518 1514 1514 1513 1513 1513 1512 1513 1514 1515 1517 1520 1522 1525 1527 1530 1532 1536 1540 1543 1546 1549 1551 1554 1556 1559 1561 1564 1566 1567 1569 1571 1572 1572 1573 1574 1574 1574 1574 1574 1574 1573 1573 1572 1573 1573 1573 1573 1574
1515 1513 1513 1513 1513 1513 1514 1513 1514 1516 1518 1520 1522 1524 1527 1529 1532 1536 1539 1543 1546 1548 1551 1554 1555 1557 1560 1562 1565 1567 1569 1571 1571 1572 1572 1573 1574 1574 1574 1572 1572 1573 1573 1573 1572 1572 1572 1572 1573
1513 1512 1511 1512 1511 1513 1512 1512 1514 1515 1518 1519 1521 1523 1526 1529 1532 1535 1538 1541 1544 1547 1550 1552 1554 1557 1559 1562 1564 1566 1568 1570 1572 1572 1572 1572 1573 1572 1572 1572 1571 1572 1571 1571 1571 1571 1571 1572 1572
1513 1510 1507 1508 1509 1510 1511 1508 1510 1514 1517 1518 1520 1522 1526 1529 1531 1534 1537 1540 1543 1546 1549 1551 1554 1557 1559 1562 1564 1566 1568 1570 1572 1572 1572 1572 1573 1572 1572 1572 1571 1571 1570 1570 1570 1570 1571 1571 1571
1508 1505 1503 1502 1507 1509 1511 1507 1508 1513 1515 1517 1520 1522 1524 1527 1530 1533 1536 1539 1542 1545 1547 1550 1554 1556 1558 1561 1563 1566 1568 1570 1571 1572 1572 1571 1571 1571 1571 1572 1571 1570 1570 1570 1570 1570 1570 1570 1570
1500 1501 1501 1500 1504 1505 1506 1504 1507 1512 1514 1515 1518 1520 1523 1525 1529 1531 1535 1538 1540 1543 1546 1549 1552 1555 1558 1560 1563 1565 1567 1569 1571 1572 1572 1571 1571 1571 1571 1571 1570 1570 1570 1570 1570 1570 1569 1569 1569
1505 1501 1499 1499 1499 1502 1502 1501 1504 1509 1511 1513 1516 1519 1521 1524 1526 1529 1532 1536 1538 1541 1544 1548 1551 1553 1557 1559 1562 1564 1566 1568 1570 1571 1571 1570 1571 1570 1571 1571 1569 1570 1570 1570 1569 1568 1568 1568 1568
1501 1501 1500 1497 1498 1501 1500 1500 1500 1505 1509 1511 1514 1517 1519 1522 1524 1527 1529 1533 1536 1539 1542 1546 1549 1552 1555 1558 1561 1563 1566 1568 1569 1570 1570 1570 1570 1570 1570 1571 1569 1570 1570 1569 1569 1568 1569 1568 1567
1499 1500 1496 1495 1498 1500 1498 1497 1497 1501 1505 1507 1510 1513 1516 1519 1522 1524 1527 1530 1534 1536 1540 1544 1547 1551 1555 1557 1560 1562 1565 1567 1569 1569 1569 1569 1570 1570 1571 1570 1571 1570 1569 1568 1568 1567 1568 1568 1567
1495 1496 1496 1497 1496 1497 1498 1495 1495 1498 1502 1505 1507 1510 1512 1515 1518 1521 1524 1527 1531 1534 1538 1542 1545 1549 1553 1556 1559 1562 1563 1566 1567 1568 1568 1569 1569 1569 1569 1569 1570 1569 1570 1570 1568 1567 1568 1568 1568
1496 1492 1495 1496 1497 1493 1497 1499 1491 1492 1497 1500 1503 1505 1508 1511 1514 1517 1521 1524 1528 1532 1536 1540 1544 1547 1550 1554 1558 1560 1563 1565 1566 1567 1568 1567 1568 1568 1569 1569 1569 1569 1570 1568 1569 1568 1568 1567 1568
1493 1494 1494 1494 1494 1495 1492 1496 1488 1489 1491 1493 1497 1501 1504 1508 1511 1514 1518 1522 1526 1530 1534 1538 1542 1545 1549 1552 1556 1559 1562 1563 1565 1565 1565 1566 1567 1567 1567 1568 1568 1568 1568 1568 1567 1567 1567 1568 1568
1494 1494 1493 1492 1489 1499 1493 1496 1491 1482 1486 1487 1493 1498 1502 1505 1509 1513 1517 1520 1524 1528 1532 1536 1539 1543 1547 1550 1554 1556 1559 1561 1562 1563 1564 1564 1566 1566 1566 1566 1566 1567 1568 1567 1566 1566 1566 1566 1565
1493 1495 1499 1499 1498 1496 1490 1492 1488 1480 1482 1485 1490 1495 1499 1503 1507 1511 1515 1518 1522 1525 1530 1534 1537 1541 1544 1548 1551 1554 1556 1557 1559 1560 1562 1563 1564 1564 1564 1565 1565 1566 1566 1565 1565 1565 1566 1565 1565
1489 1491 1504 1512 1504 1493 1487 1490 1481 1480 1483 1486 1489 1493 1497 1501 1505 1509 1512 1516 1520 1523 1527 1531 1535 1538 1542 1545 1549 1551 1553 1555 1557 1558 1560 1561 1562 1563 1562 1562 1563 1564 1564 1564 1564 1565 1565 1564 1564
1489 1487 1483 1492 1492 1496 1487 1481 1476 1479 1482 1485 1488 1491 1495 1499 1503 1507 1511 1514 1518 1521 1525 1529 1532 1536 1539 1543 1545 1548 1550 1552 1554 1554 1556 1558 1558 1560 1560 1560 1561 1562 1562 1562 1562 1564 1563 1562 1562
1486 1484 1489 1492 1504 1505 1492 1485 1482 1479 1480 1482 1485 1489 1493 1497 1501 1505 1509 1512 1516 1519 1523 1526 1530 1533 1536 1539 1542 1545 1546 1548 1550 1552 1553 1554 1555 1556 1557 1558 1559 1559 1560 1560 1560 1561 1561 1560 1560
1489 1489 1488 1486 1490 1502 1501 1490 1475 1477 1478 1480 1483 1487 1491 1495 1498 1502 1506 1510 1514 1517 1521 1524 1527 1530 1533 1536 1538 1541 1543 1545 1546 1548 1549 1551 1552 1552 1554 1555 1556 1557 1557 1558 1558 1559 1559 1558 1558
1480 1481 1485 1494 1493 1491 1494 1487 1474 1476 1477 1479 1481 1486 1489 1493 1497 1500 1504 1508 1511 1515 1518 1521 1523 1526 1529 1532 1534 1536 1539 1541 1542 1544 1546 1547 1548 1549 1551 1552 1553 1554 1555 1555 1555 1555 1556 1556 1556